Find Starlink 6244

NORAD ID: 56548 Int'l Des: 2023-065 Owner: SPXS Country: US Constellation: starlink operational
LEOCIRCULAR

現在のビュー

3D地球を読み込み中...

Starlink 6244について

説明を読み込み中...

次回通過

Passes for default location (London). Set your location on the main map for personalized predictions.

高度履歴

Loading altitude history...

軌道要素

1 56548U 23065AX 26149.27637200 -.00001432 00000-0 -42548-4 0 9992
2 56548 43.0047 128.7462 0001552 274.4879 85.5795 15.27568853168792
Epoch: May 29, 2026 • Age: 18 hours

現在のステータス

高度 485.0 km
速度 7.62 km/s
衛星直下点 -11.89°S, 58.57°E
打ち上げ日 May 14, 2023
運用期間 3 years
タイプ internet

技術仕様

分類 Payload
質量 305.00 kg
乾燥質量 290.00 kg
総質量 305.00 kg
長さ 0.20 m
直径 2.80 m
スパン 9.00 m
形状 Box + pan
製造者 SPXS
バスタイプ Starlink
フェーズステータス In Orbit
所有者/国 SPXS/US

Most Searched